Location: St Andrew
(49.4460°N, 2.5750°W)
Time: 00:15:03
(UTC+00:00)

Daily predictions for brighter satellites

Satellite Brightness Start Highest point End
(mag) Time Altitude Azimuth Time Altitude Azimuth Time Altitude Azimuth
Okean O Rocket 4.1 03:19:30 10° NE 03:21:01 18° NE 03:21:01 18° NE
MOS 1 Rocket 4.5 03:34:38 10° NNE 03:39:03 47° ENE 03:39:03 47° ENE
USA 234 4.2 03:37:58 10° ENE 03:43:55 36° SE 03:44:59 34° SSE
Iridium 4 Rocket 4.4 03:40:31 10° N 03:44:54 52° NNE 03:44:54 52° NNE
ADEOS II 3.1 03:44:17 10° NNE 03:49:19 42° E 03:49:57 40° ESE
Cosmos 2278 Rocket 4.0 03:52:12 21° NNW 03:52:12 21° NNW 03:54:57 10° NNE
Cosmos 2369 Rocket 3.0 03:52:50 43° SE 03:53:27 45° ESE 03:58:49 10° NE
ADEOS Rocket 3.5 03:48:58 10° N 03:54:45 54° NNW 03:54:45 54° NNW
CZ-2D R/B 4.0 03:55:47 10° N 03:57:39 20° NNW 03:57:39 20° NNW
Lacrosse 4 Rocket 3.9 04:05:21 14° N 04:05:21 14° N 04:06:05 10° NNE
Resurs 1-4 Rocket 4.0 04:02:23 10° N 04:04:06 18° NNW 04:04:06 18° NNW
Okean-O 4.4 04:11:18 10° NNE 04:15:13 30° E 04:18:48 12° SSE
PSLV R/B 4.3 04:15:59 10° NNE 04:19:08 48° NE 04:19:08 48° NE
Cosmos 407 Rocket 3.6 04:19:43 10° NNW 04:25:07 77° ENE 04:30:28 10° SSE
Lacrosse 5 3.6 04:23:43 20° SSE 04:25:45 26° SE 04:29:55 10° ENE
Cosmos 1933 4.0 04:27:16 54° E 04:27:16 54° E 04:31:14 10° NNE
CZ-4B R/B 4.4 04:26:52 10° N 04:28:56 28° N 04:28:56 28° N
Cosmos 921 Rocket 3.2 04:31:38 65° NNE 04:31:38 65° NNE 04:35:21 10° NNE
Meteor PRIRODA 4.4 04:29:41 10° NNE 04:32:57 50° ENE 04:32:57 50° ENE
IRS-1C Rocket 3.9 04:29:49 10° NNE 04:35:05 73° WNW 04:35:30 69° WSW
Cosmos 2263 4.4 04:33:28 35° S 04:35:48 67° ESE 04:41:24 10° NNE
CZ-4B R/B 3.1 04:30:36 10° NNE 04:36:12 80° WNW 04:37:41 51° SSW
ATLAS 5 CENTAUR R/B 2.7 04:35:52 32° S 04:37:37 46° ESE 04:42:37 10° NE
Lacrosse 5 rocket 2.7 04:38:28 27° NNE 04:38:28 27° NNE 04:41:31 10° ENE
Cosmos 1867 3.5 04:39:59 59° SW 04:41:04 89° NW 04:46:36 10° NE
Cosmos 1943 Rocket 2.7 04:41:28 19° S 04:45:22 57° ESE 04:50:49 10° NE
Cosmos 1140 Rocket 4.1 04:44:26 10° NNW 04:49:36 56° ENE 04:54:45 10° SE
Meteor 2-10 Rocket 4.4 04:44:53 10° SSE 04:49:40 47° E 04:54:32 10° NNE
Cosmos 1190 Rocket 3.9 04:49:07 40° NW 04:50:47 60° WSW 04:55:58 10° S
Cosmos 1862 Rocket 3.4 04:51:20 67° WNW 04:51:20 67° WNW 04:55:30 10° N
Nadezhda 2 Rocket 4.3 04:49:03 10° NNW 04:55:09 74° W 05:01:14 10° S
ERS-2 2.7 04:54:09 10° N 04:57:01 46° NNW 04:57:01 46° NNW
Cosmos 1703 Rocket 4.0 04:55:13 10° S 04:59:29 60° E 05:03:48 10° NNE
Okean O Rocket 2.7 04:55:48 10° N 04:58:29 28° NNW 04:58:29 28° NNW
Cosmos 2266 Rocket 4.2 04:54:12 10° NNW 05:00:01 44° W 05:05:43 10° SSW
PAYLOAD B 4.4 04:56:54 10° N 05:02:12 48° WNW 05:03:36 39° WSW
Cosmos 1624 Rocket 4.0 05:06:51 29° SW 05:09:33 68° WNW 05:14:54 10° NNE
Cosmos 2056 Rocket 3.4 05:08:01 28° SW 05:10:44 71° WNW 05:15:58 10° NNE
Meteor 1-28 Rocket 4.0 05:08:22 10° SSE 05:12:00 52° ENE 05:15:40 10° N
Cosmos 972 Rocket 4.0 05:10:58 30° SW 05:13:25 60° WNW 05:18:56 10° NNE
Cosmos 2297 Rocket 4.1 05:10:16 10° NNW 05:15:03 27° NE 05:19:50 10° ESE
NOAA 6 4.3 05:12:36 10° NNE 05:17:48 73° ESE 05:22:56 10° S
Cosmos 1954 Rocket 3.9 05:13:13 10° NNW 05:18:31 71° WSW 05:23:48 10° SSE
Cosmos 1745 Rocket 4.1 05:13:58 10° N 05:20:10 75° E 05:26:18 10° SSE
SJ-6F 4.4 05:16:20 10° NNE 05:20:32 88° ESE 05:24:39 10° SSW
Cosmos 2221 Rocket 3.7 05:17:19 10° S 05:21:53 81° E 05:26:28 10° NNE
Feng Yun 1-1 Rocket 4.3 05:17:09 10° NNE 05:22:59 76° WNW 05:28:54 10° SSW
COSMO-SKYMED 1 2.4 05:20:03 10° S 05:24:24 80° WSW 05:28:47 10° NNW
Cosmos 1417 Rocket 4.4 05:18:54 10° S 05:25:05 89° E 05:31:16 10° N
Cosmos 2219 3.2 05:20:43 10° NNW 05:26:28 90° WSW 05:32:08 10° SSE
USA 234 3.2 05:20:49 10° ENE 05:27:23 86° NNW 05:32:21 19° WSW
ADEOS II 2.8 05:24:15 10° N 05:28:56 33° WNW 05:30:55 25° WSW
Meteor 1-31 Rocket 3.1 05:30:34 10° N 05:34:19 44° WNW 05:36:51 18° SW
Cosmos 2227 Rocket 3.4 05:29:37 10° NNW 05:35:01 42° NE 05:40:23 10° ESE
Thor Agena Rocket 4.0 05:30:43 10° SSW 05:35:34 38° W 05:40:24 10° NNW
CZ-4C R/B 3.0 05:31:59 10° SSW 05:37:09 52° ESE 05:43:03 10° NE
Cosmos 2369 Rocket 2.8 05:34:40 23° WSW 05:37:35 38° NW 05:42:52 10° NNE
DMSP B5D1-3 4.4 05:36:53 10° S 05:41:58 73° WSW 05:47:06 10° NNW
Radarsat Rocket 4.4 05:38:15 10° NNE 05:45:56 90° SE 05:52:36 10° SSW
CZ-4B R/B 4.4 05:43:05 10° N 05:46:39 36° WNW 05:50:21 10° SW
Okean-O 3.3 05:47:43 10° N 05:51:45 34° WNW 05:55:45 10° SW
Cosmos 1452 Rocket 3.5 05:46:56 10° SSW 05:52:13 73° WNW 05:57:32 10° NNE
Cosmos 1656 Rocket 3.7 05:48:45 10° SSW 05:54:27 89° ESE 06:00:11 10° NNE
Abrixas 2.6 05:54:49 21° WSW 05:56:33 62° S 05:59:25 10° E
Okean 1-7 3.1 05:53:33 10° SSW 05:57:44 52° WNW 06:01:55 10° N
Cosmos 1782 Rocket 4.3 05:54:40 10° NNW 05:58:36 31° W 06:02:32 10° SSW
Cosmos 1741 Rocket 4.0 05:53:54 10° NNW 05:59:06 66° WSW 06:04:18 10° S
ATLAS 3B R/B 4.3 05:52:12 10° S 05:59:06 41° ESE 06:05:48 10° NE
Lacrosse 5 1.9 06:03:12 10° WSW 06:08:18 82° NNW 06:13:25 10° NE
Helios 1B rocket 4.2 06:05:08 10° SE 06:08:54 36° ENE 06:12:42 10° N
Cosmos 1536 4.3 06:05:26 10° N 06:09:14 41° ENE 06:13:02 10° SE
Cosmos 1300 Rocket 3.9 06:06:55 10° N 06:11:23 72° E 06:15:47 10° SSE
USA 81 4.0 06:06:41 10° SSW 06:11:56 69° W 06:17:13 10° N
Tiangong 1 3.4 06:10:11 10° SSW 06:12:08 16° SSE 06:14:06 10° ESE
S3M 4.1 06:06:13 10° SSW 06:12:26 56° WNW 06:18:38 10° N
BREEZE M DEB (TANK) 3.6 06:00:34 12° W 06:12:40 90° WSW 06:16:32 10° E
SKYMED 2 4.5 06:08:59 10° SSW 06:12:42 27° W 06:16:26 10° NW
Okean 2 Rocket 4.0 06:14:07 10° NNW 06:17:48 26° W 06:21:27 10° SW
Lacrosse 5 rocket 1.2 06:14:25 10° NW 06:18:03 72° NNE 06:21:38 10° ESE
Cosmos 1553 Rocket 4.2 06:15:12 10° SSW 06:21:09 47° WNW 06:27:14 10° N
ATLAS 5 CENTAUR R/B 2.5 06:17:45 10° WSW 06:22:25 40° NW 06:27:33 10° NE
Cosmos 1943 Rocket 3.0 06:24:35 10° WSW 06:29:27 31° NW 06:34:22 10° NNE
Cosmos 1674 Rocket 3.6 06:26:17 10° S 06:30:41 90° ENE 06:35:09 10° N
Meteor 2-10 Rocket 4.4 06:27:52 10° WSW 06:32:00 25° WNW 06:36:12 10° N
Cosmos 2082 3.8 06:27:58 10° NNW 06:33:42 89° ENE 06:39:21 10° SSE
